Rutherford County, North Carolina, United States
Lat: 35.39N, Lon: 81.98W
Wx Zone: NCZ508
Local Info
Past Weather Observations for Today

NOTE: This archive is for the closest National Weather Service station to Rutherford County. Information may differ from the station used for current weather conditions.

Click here for Long-term Archive

Time Weather Temperature Dewpoint Humidity Pressure Winds Precip Visibility
08:55
Partly Cloudy
77°F / 25°C 72°F / 22°C 83% 30.24 in
(1024 mb)
Calm - 10SM
08:35
Partly Cloudy
77°F / 25°C 72°F / 22°C 83% 30.24 in
(1024 mb)
Calm - 10SM
08:15
Clear
75°F / 24°C 72°F / 22°C 89% 30.24 in
(1024 mb)
Calm - 7SM
07:55
Partly Cloudy
Fog And Mist
73°F / 23°C 72°F / 22°C 94% 30.24 in
(1024 mb)
Calm - 5SM
07:35
Mostly Cloudy
Fog And Mist
72°F / 22°C 70°F / 21°C 94% 30.24 in
(1024 mb)
Calm - 2 1/2SM
07:15
Partly Cloudy
Fog And Mist
70°F / 21°C 70°F / 21°C 100% 30.24 in
(1024 mb)
NW 8.1 mph
(NW 13 kph)
- 2 1/2SM
06:55
Partly Cloudy
Fog And Mist
70°F / 21°C 68°F / 20°C 94% 30.24 in
(1024 mb)
W 10.4 mph
(W 17 kph)
- 1 3/4SM
06:35
Clear
Fog And Mist
68°F / 20°C 68°F / 20°C 100% 30.21 in
(1023 mb)
Calm - 3SM
06:15
Clear
Fog And Mist
70°F / 21°C 68°F / 20°C 94% 30.21 in
(1023 mb)
Calm - 3SM
05:55
Clear
Fog And Mist
70°F / 21°C 70°F / 21°C 100% 30.21 in
(1023 mb)
Calm - 5SM
05:35
Clear
Fog And Mist
70°F / 21°C 70°F / 21°C 100% 30.21 in
(1023 mb)
Calm - 5SM
05:15
Clear
Fog And Mist
72°F / 22°C 70°F / 21°C 94% 30.21 in
(1023 mb)
Calm - 5SM
04:55
Clear
Fog And Mist
70°F / 21°C 70°F / 21°C 100% 30.21 in
(1023 mb)
Calm - 5SM
04:35
Clear
Fog And Mist
72°F / 22°C 70°F / 21°C 94% 30.21 in
(1023 mb)
Calm - 5SM
04:15
Clear
Fog And Mist
72°F / 22°C 70°F / 21°C 94% 30.21 in
(1023 mb)
Calm - 5SM
03:55
Partly Cloudy
Fog And Mist
70°F / 21°C 70°F / 21°C 100% 30.18 in
(1022 mb)
Calm - 5SM
03:35
Overcast
Fog And Mist
72°F / 22°C 70°F / 21°C 94% 30.18 in
(1022 mb)
Calm - 5SM
03:15
Mostly Cloudy
72°F / 22°C 70°F / 21°C 94% 30.18 in
(1022 mb)
Calm - 7SM
02:55
Partly Cloudy
73°F / 23°C 70°F / 21°C 89% 30.18 in
(1022 mb)
Calm - 7SM
02:35
Overcast
73°F / 23°C 72°F / 22°C 94% 30.18 in
(1022 mb)
Calm - 7SM
02:15
Overcast
73°F / 23°C 70°F / 21°C 89% 30.18 in
(1022 mb)
Calm - 7SM
01:55
Overcast
73°F / 23°C 72°F / 22°C 94% 30.21 in
(1023 mb)
Calm - 7SM
01:35
Mostly Cloudy
73°F / 23°C 72°F / 22°C 94% 30.21 in
(1023 mb)
Calm - 10SM
01:15
Overcast
75°F / 24°C 72°F / 22°C 89% 30.21 in
(1023 mb)
Calm - 10SM
00:55
Overcast
73°F / 23°C 70°F / 21°C 89% 30.21 in
(1023 mb)
Calm - 10SM
00:35
Overcast
73°F / 23°C 70°F / 21°C 89% 30.21 in
(1023 mb)
Calm - 7SM
00:15
Overcast
73°F / 23°C 70°F / 21°C 89% 30.21 in
(1023 mb)
Calm - 10SM
Time Weather Temperature Dewpoint Humidity Pressure Winds Precip Visibility


Weather for websites

WeatherForYou.com, LLC is not responsible for any damages or problems caused by this service. Current weather conditions are obtained from the closest station including government and personal stations which may have varying degrees of accuracy. Weather forecasts are derived from the NOAA NDFD. Like all things, this site belongs to Jesus Christ... He just trusts me to maintain it. If you have any questions or comments email webmaster@weatherforyou.com

Copyright © 2014, WeatherForYou.com LLC. All rights reserved.